Location: Les Gen�tes
(46.3104°N, 1.5969°E)
Time: 03:17:54
(UTC+00:00)

BREEZE M DEB (TANK) - Pass Details

Date: 01 June 2020
Orbit: 284 x 14549 km, 49.5° (Epoch: 11 July)

Event Time Altitude Azimuth Distance (km) Brightness Sun altitude
Rises 21:56:35 0° 257° (WSW) 4,179 7.5 -16.7°
Reaches altitude 10° 22:00:36 10° 261° (W) 2,188 6.1 -17.0°
Maximum altitude 22:04:34 60° 342° (NNW) 440 2.6 -17.3°
Enters shadow 22:06:18 14° 63° (ENE) 985 4.1 -17.4°
